Location: Peterborough
(44.3091°N, 78.3197°W)
Time: 07:14:20
(UTC-04:00)

A-11 Canister half - Pass Details

Date: 28 March 2023
Orbit: 1513 x 1686 km, 47.2° (Epoch: 04 June)

Event Time Altitude Azimuth Distance (km) Brightness Sun altitude
Rises 00:17:33 0° 266° (W) 4,840 11.8 -40.9°
Reaches altitude 10° 00:20:40 10° 268° (W) 3,876 11.2 -41.1°
Enters shadow 00:28:33 60° 290° (WNW) 1,864 9.3 -41.5°
Exits shadow 00:41:23 - 82° (E) 4,097 11.2 -42.1°
Sets 00:44:07 0° 84° (E) 4,941 11.6 -42.2°
